Regional Weather Roundup
Issued by NWS

Home | Current Version | Previous Version | Graphics & Text | Print | Product List | Glossary On
Versions: 1 2 3 4 5 6 7 8 9 10 11 12 13 14 15 16 17 18 19 20 21 22 23 24 25 26 27 28 29 30 31 32 33 34 35 36 37 38 39 40 41 42 43 44 45 46 47 48 49 50
666
ASUS44 KMEG 272310
RWRTN
TENNESSEE HOURLY STATE WEATHER ROUNDUP
NATIONAL WEATHER SERVICE MEMPHIS TN
600 PM CDT THU APR 27 2017

TNZ002-004-019-021-049-052-054-088>092-280000-
WEST TENNESSEE

CITY           SKY/WX    TMP DP  RH WIND       PRES   REMARKS
MEMPHIS INTL   MOSUNNY   68  49  50 VRB3      29.80S
NWS MEMPHIS      N/A     71 N/A N/A MISG        N/A
JACKSON        SUNNY     67  50  54 CALM      29.82S
DYERSBURG      CLOUDY    65  50  58 S5        29.82S
SOMERVILLE     SUNNY     68  50  52 VRB3      29.80S
UNION CITY     SUNNY     64  50  59 VRB6      29.81S
BOLIVAR        SUNNY     68  48  49 SE5       29.81S
PARIS          SUNNY     63  48  59 SW5       29.83R
HUNTINGDON     SUNNY     64  52  63 S5        29.82R
LEXINGTON      SUNNY     66  50  55 SW5       29.82S
SAVANNAH       SUNNY     66  52  59 CALM      29.82F
$$

TNZ008-025-027-028-033-062-065-066-280000-
NORTH MIDDLE TENNESSEE

CITY           SKY/WX    TMP DP  RH WIND       PRES   REMARKS
NASHVILLE      PTSUNNY   69  49  48 W7        29.84R
PORTLAND       SUNNY     64  52  63 NW3       29.84S
CLARKSVILLE    MOSUNNY   63  47  55 S3        29.83S
SMYRNA         MOSUNNY   70  50  49 W8        29.84S
COOKEVILLE     MOSUNNY   72  54  53 VRB6      29.82R
GALLATIN       SUNNY     68  50  52 VRB5      29.86S
CROSSVILLE     SUNNY     69  51  52 W14       29.86R
$$

TNZ061-075-076-078-094-096-097-280000-
SOUTH MIDDLE TENNESSEE

CITY           SKY/WX    TMP DP  RH WIND       PRES   REMARKS
FAYETTEVILLE   SUNNY     70  54  56 W7        29.84R
TULLAHOMA      SUNNY     72  50  46 W5        29.85R
WINCHESTER     SUNNY     72  54  53 VRB6      29.85R
MCMINNVILLE    SUNNY     72  54  53 W7        29.84R
COLUMBIA       SUNNY     70  52  52 VRB5      29.82S
SHELBYVILLE    SUNNY     73  55  53 W10       29.84S
$$

TNZ017-018-042-046-047-280000-
NORTHEAST TENNESSEE

CITY           SKY/WX    TMP DP  RH WIND       PRES   REMARKS
TRI CITIES     PTSUNNY   69  64  84 VRB6      29.84S
ELIZABETHTON   CLOUDY    64  64 100 CALM      29.86R
$$

TNZ012-013-036-069-073-074-280000-
CENTRAL EAST TENNESSEE

CITY           SKY/WX    TMP DP  RH WIND       PRES   REMARKS
KNOXVILLE      MOSUNNY   75  59  57 SW8       29.80R
OAK RIDGE      MOSUNNY   76  57  51 VRB5      29.81R
DOWNTOWN KNOXV SUNNY     77  59  53 W8G15     29.80R
GATLINBURG     MOSUNNY   73  63  68 W6        29.80R
MORRISTOWN     SUNNY     73  63  68 W8        29.81R
JACKSBORO      MOSUNNY   77  48  36 VRB5G13   29.83R
$$

TNZ083-085-099-280000-
SOUTHEAST TENNESSEE

CITY           SKY/WX    TMP DP  RH WIND       PRES   REMARKS
CHATTANOOGA    MOSUNNY   78  53  41 SW8       29.81R
$$

SKY/WX REPORTED AS FAIR MEANS FEW OR NO CLOUDS BELOW
12 THOUSAND FEET.





USA.gov is the U.S. government's official web portal to all federal, state and local government web resources and services.